• In Hungary
  • List of Countries
  • For 7 days
  • Water Temperature
  • Satellite Maps
  • Weather Map
  • News
  • Weather Widgets
  • user-avatar
    Login

    Hourly Weather Gotkovichi

    Today, 14 November, Wednesday

    Time Temperature Precipitation Wind Pressure Humidity
    00:00 +2°C° 1.1 mm 6 mps 751 mmHg 82%
    01:00 +2°C° 1.1 mm 6 mps 750 mmHg 85%
    02:00 +2°C° 0 mm 5 mps 750 mmHg 88%
    03:00 +3°C° 1.1 mm 4 mps 749 mmHg 89%
    04:00 +3°C° 1.1 mm 4 mps 749 mmHg 90%
    05:00 +3°C° 1.1 mm 4 mps 749 mmHg 92%
    06:00 +3°C° 0.8 mm 4 mps 749 mmHg 93%
    07:00 +3°C° 0.8 mm 3 mps 749 mmHg 94%
    08:00 +4°C° 0.8 mm 3 mps 749 mmHg 95%
    09:00 +4°C° 0.5 mm 3 mps 749 mmHg 94%
    10:00 +5°C° 0.5 mm 3 mps 749 mmHg 93%
    11:00 +5°C° 0.5 mm 4 mps 749 mmHg 92%
    12:00 +5°C° 0.4 mm 4 mps 750 mmHg 91%
    13:00 +5°C° 0.4 mm 4 mps 750 mmHg 89%
    14:00 +5°C° 0.4 mm 5 mps 750 mmHg 88%
    15:00 +5°C° 0.2 mm 4 mps 751 mmHg 88%
    16:00 +5°C° 0.2 mm 4 mps 751 mmHg 88%
    17:00 +5°C° 0.2 mm 4 mps 752 mmHg 89%
    18:00 +4°C° 0 mm 4 mps 752 mmHg 90%
    19:00 +4°C° 0 mm 4 mps 753 mmHg 91%
    20:00 +4°C° 0 mm 3 mps 753 mmHg 92%
    21:00 +4°C° 0 mm 3 mps 753 mmHg 93%
    22:00 +4°C° 0 mm 3 mps 754 mmHg 93%
    23:00 +4°C° 0 mm 3 mps 754 mmHg 94%

    Tomorrow, 15 November, Thursday

    Time Temperature Precipitation Wind Pressure Humidity
    00:00 +5°C° 0 mm 2 mps 755 mmHg 94%
    01:00 +5°C° 0 mm 2 mps 755 mmHg 94%
    02:00 +5°C° 0 mm 2 mps 756 mmHg 95%
    03:00 +5°C° 0 mm 2 mps 756 mmHg 94%
    04:00 +5°C° 0 mm 2 mps 756 mmHg 94%
    05:00 +5°C° 0 mm 2 mps 756 mmHg 94%
    06:00 +5°C° 0 mm 1 mps 757 mmHg 95%
    07:00 +5°C° 0 mm 1 mps 757 mmHg 95%
    08:00 +4°C° 0 mm 1 mps 758 mmHg 95%
    09:00 +5°C° 0 mm 1 mps 758 mmHg 93%
    10:00 +5°C° 0 mm 1 mps 759 mmHg 91%
    11:00 +6°C° 0 mm 1 mps 759 mmHg 88%
    12:00 +6°C° 0 mm 1 mps 759 mmHg 86%
    13:00 +6°C° 0 mm 1 mps 760 mmHg 84%
    14:00 +6°C° 0 mm 1 mps 760 mmHg 82%
    15:00 +6°C° 0 mm 1 mps 760 mmHg 84%
    16:00 +5°C° 0 mm 1 mps 761 mmHg 87%
    17:00 +4°C° 0 mm 1 mps 761 mmHg 89%
    18:00 +4°C° 0 mm 1 mps 761 mmHg 89%
    19:00 +3°C° 0 mm 2 mps 762 mmHg 90%
    20:00 +2°C° 0 mm 2 mps 762 mmHg 90%
    21:00 +2°C° 0 mm 2 mps 762 mmHg 90%
    22:00 +2°C° 0 mm 2 mps 763 mmHg 89%
    23:00 +2°C° 0 mm 2 mps 763 mmHg 89%

    Day after tomorrow, 16 November, Friday

    Time Temperature Precipitation Wind Pressure Humidity
    00:00 +2°C° 0 mm 2 mps 763 mmHg 89%
    01:00 +2°C° 0 mm 1 mps 764 mmHg 89%
    02:00 +2°C° 0 mm 1 mps 764 mmHg 88%
    03:00 +2°C° 0 mm 1 mps 764 mmHg 88%
    04:00 +2°C° 0 mm 1 mps 764 mmHg 88%
    05:00 +2°C° 0 mm 1 mps 764 mmHg 88%
    06:00 +2°C° 0 mm 1 mps 765 mmHg 88%
    07:00 +1°C° 0 mm 1 mps 765 mmHg 89%
    08:00 +1°C° 0 mm 1 mps 765 mmHg 89%
    09:00 +2°C° 0 mm 1 mps 766 mmHg 86%
    10:00 +2°C° 0 mm 1 mps 766 mmHg 83%
    11:00 +3°C° 0 mm 1 mps 766 mmHg 81%
    12:00 +3°C° 0 mm 1 mps 766 mmHg 80%
    13:00 +4°C° 0 mm 1 mps 766 mmHg 79%
    14:00 +4°C° 0 mm 1 mps 766 mmHg 78%
    15:00 +4°C° 0 mm 1 mps 766 mmHg 82%
    16:00 +3°C° 0 mm 1 mps 766 mmHg 85%
    17:00 +1°C° 0 mm 0 mps 766 mmHg 89%
    18:00 +2°C° 0 mm 1 mps 766 mmHg 90%
    19:00 +2°C° 0 mm 1 mps 766 mmHg 91%
    20:00 +2°C° 0 mm 1 mps 767 mmHg 92%
    21:00 +2°C° 0 mm 1 mps 767 mmHg 93%
    22:00 +1°C° 0 mm 1 mps 767 mmHg 93%
    23:00 +1°C° 0 mm 1 mps 767 mmHg 94%

    17 November, Saturday

    Time Temperature Precipitation Wind Pressure Humidity
    00:00 +1°C° 0 mm 1 mps 767 mmHg 94%
    01:00 +1°C° 0 mm 1 mps 767 mmHg 94%
    02:00 +1°C° 0 mm 1 mps 767 mmHg 94%
    03:00 +1°C° 0 mm 1 mps 767 mmHg 94%
    04:00 +1°C° 0 mm 1 mps 766 mmHg 94%
    05:00 +1°C° 0 mm 1 mps 766 mmHg 94%
    06:00 +1°C° 0 mm 1 mps 766 mmHg 93%
    07:00 +1°C° 0 mm 1 mps 766 mmHg 93%
    08:00 +1°C° 0 mm 1 mps 766 mmHg 93%
    09:00 +1°C° 0 mm 2 mps 766 mmHg 90%
    10:00 +2°C° 0 mm 2 mps 766 mmHg 88%
    11:00 +2°C° 0 mm 2 mps 766 mmHg 85%
    12:00 +2°C° 0 mm 2 mps 765 mmHg 85%
    13:00 +3°C° 0 mm 2 mps 765 mmHg 84%
    14:00 +2°C° 0 mm 3 mps 764 mmHg 84%
    15:00 +2°C° 0 mm 3 mps 764 mmHg 85%
    16:00 +2°C° 0 mm 3 mps 763 mmHg 86%
    17:00 +1°C° 0 mm 3 mps 763 mmHg 88%
    18:00 +1°C° 0 mm 3 mps 762 mmHg 89%
    19:00 +1°C° 0 mm 3 mps 761 mmHg 90%
    20:00 0°C° 0 mm 4 mps 761 mmHg 92%
    21:00 0°C° 0 mm 4 mps 760 mmHg 93%
    22:00 +1°C° 0 mm 4 mps 759 mmHg 94%
    23:00 +1°C° 0 mm 4 mps 759 mmHg 95%

    18 November, Sunday

    Time Temperature Precipitation Wind Pressure Humidity
    00:00 +1°C° 0 mm 4 mps 758 mmHg 95%
    01:00 +3°C° 0 mm 4 mps 757 mmHg 95%
    02:00 +3°C° 0 mm 4 mps 757 mmHg 94%
    03:00 +2°C° 0 mm 5 mps 756 mmHg 94%
    04:00 +2°C° 0 mm 5 mps 755 mmHg 93%
    05:00 +2°C° 0 mm 5 mps 754 mmHg 92%
    06:00 +2°C° 0.1 mm 5 mps 754 mmHg 91%
    07:00 +3°C° 0.1 mm 4 mps 754 mmHg 90%
    08:00 +3°C° 0.1 mm 4 mps 753 mmHg 88%
    09:00 +3°C° 0.1 mm 4 mps 753 mmHg 86%
    10:00 +3°C° 0.1 mm 4 mps 753 mmHg 84%
    11:00 +2°C° 0.1 mm 5 mps 753 mmHg 82%
    12:00 +3°C° 0.1 mm 5 mps 753 mmHg 82%
    13:00 +3°C° 0.1 mm 5 mps 752 mmHg 82%
    14:00 +3°C° 0.1 mm 5 mps 752 mmHg 82%
    15:00 +3°C° 0.1 mm 5 mps 752 mmHg 82%
    16:00 +3°C° 0.1 mm 5 mps 752 mmHg 82%
    17:00 +3°C° 0.1 mm 5 mps 752 mmHg 81%
    18:00 +2°C° 0.2 mm 5 mps 752 mmHg 82%
    19:00 +2°C° 0.2 mm 5 mps 751 mmHg 83%
    20:00 +2°C° 0.2 mm 5 mps 751 mmHg 84%
    21:00 +2°C° 0.2 mm 5 mps 751 mmHg 84%
    22:00 +2°C° 0.2 mm 5 mps 751 mmHg 84%
    23:00 +2°C° 0.2 mm 5 mps 751 mmHg 84%

    19 November, Monday

    Time Temperature Precipitation Wind Pressure Humidity
    00:00 +2°C° 0.2 mm 5 mps 751 mmHg 84%
    01:00 +2°C° 0.2 mm 5 mps 751 mmHg 84%
    02:00 +1°C° 0.2 mm 5 mps 751 mmHg 84%
    03:00 +1°C° 0.1 mm 4 mps 751 mmHg 86%
    04:00 +1°C° 0.1 mm 4 mps 750 mmHg 87%
    05:00 +1°C° 0.1 mm 3 mps 750 mmHg 89%
    06:00 0°C° 0.1 mm 4 mps 751 mmHg 89%
    07:00 0°C° 0.1 mm 4 mps 751 mmHg 88%
    08:00 0°C° 0.1 mm 4 mps 751 mmHg 88%
    09:00 +1°C° 0.1 mm 5 mps 751 mmHg 85%
    10:00 +1°C° 0.1 mm 5 mps 752 mmHg 83%
    11:00 +1°C° 0.1 mm 5 mps 752 mmHg 81%
    12:00 +1°C° 0.2 mm 6 mps 753 mmHg 81%
    13:00 +1°C° 0.2 mm 6 mps 753 mmHg 80%
    14:00 +1°C° 0.2 mm 6 mps 753 mmHg 80%
    15:00 -1°C° 0.1 mm 6 mps 753 mmHg 81%
    16:00 0°C° 0.1 mm 5 mps 754 mmHg 82%
    17:00 0°C° 0.1 mm 5 mps 754 mmHg 82%
    18:00 0°C° 0.1 mm 5 mps 754 mmHg 83%
    19:00 0°C° 0.1 mm 5 mps 755 mmHg 84%
    20:00 -1°C° 0.1 mm 5 mps 755 mmHg 85%
    21:00 -1°C° 0.1 mm 5 mps 755 mmHg 85%
    22:00 -1°C° 0.1 mm 5 mps 756 mmHg 85%
    23:00 -1°C° 0.1 mm 5 mps 757 mmHg 85%
    Show more